Cortez, CO

2:56 AM MDT on April 23, 2017 (GMT -0600)
Cortez Municipal

Weather History for KCEZ - January, 2015

Change the Weather History Date:

Thursday, January 29, 2015

  Actual Average Record
Temperature  
Mean Temperature 40 °F 29 °F  
Max Temperature 54 °F 42 °F 54 °F (1998)
Min Temperature 26 °F 16 °F 1 °F (2008)
Degree Days  
Heating Degree Days 25 36  
Month to date heating degree days 982 1076  
Since 1 July heating degree days 3261 3734  
Cooling Degree Days 0 0  
Month to date cooling degree days 0 0  
Year to date cooling degree days 0 0  
Moisture  
Dew Point 29 °F    
Average Humidity 65    
Maximum Humidity 92    
Minimum Humidity 38    
Precipitation  
Precipitation 0.00 in 0.04 in 0.02 in (2001)
Month to date precipitation 0.64 0.92  
Year to date precipitation 0.64 0.92  
Sea Level Pressure  
Sea Level Pressure 30.28 in    
Wind  
Wind Speed 4 mph (East)    
Max Wind Speed 22 mph    
Max Gust Speed 30 mph    
Visibility 10 miles    
Events      
T = Trace of Precipitation, MM = Missing Value Source: NWS Daily Summary

Daily Weather History Graph

Daily Weather History Graph

Search for Another Location

Airport or City:

Trip Planner

Search our weather history database for the weather conditions in past years. The results will help you decide how hot, cold, wet, or windy it might be!

Date:

Astronomy

Jan. 29, 2015 Rise Set
Actual Time 7:20 AM MST 5:35 PM MST
Civil Twilight 6:52 AM MST 6:03 PM MST
Nautical Twilight 6:21 AM MST 6:34 PM MST
Astronomical Twilight 5:50 AM MST 7:05 PM MST
Moon 1:26 PM MST (1/29) 2:55 AM MST (1/29)
Length of Visible Light 11h 10m
Length of Day
10h 15m
Waxing Gibbous, 76% of the Moon is Illuminated
Jan 29
Waxing Gibbous
Feb 3
Full
Feb 11
Last Quarter
Feb 18
New
Feb 25
First Quarter

Hourly Weather History & Observations

Time (MST) Temp. Windchill Dew Point Humidity Pressure Visibility Wind Dir Wind Speed Gust Speed Precip Events Conditions
12:53 AM 32.0 °F 26.4 °F 27.0 °F 82% 30.25 in 10.0 mi ENE 5.8 mph - N/A   Clear
1:53 AM 30.9 °F - 26.1 °F 82% 30.25 in 10.0 mi Calm Calm - N/A   Clear
2:53 AM 30.9 °F 27.5 °F 27.0 °F 85% 30.27 in 10.0 mi ENE 3.5 mph - N/A   Clear
3:53 AM 30.0 °F 26.5 °F 26.1 °F 85% 30.26 in 10.0 mi ENE 3.5 mph - N/A   Clear
4:53 AM 26.1 °F - 25.0 °F 96% 30.28 in 10.0 mi Calm Calm - N/A   Clear
5:53 AM 28.0 °F 22.8 °F 26.1 °F 92% 30.31 in 10.0 mi East 4.6 mph - N/A   Clear
6:53 AM 30.0 °F - 27.0 °F 88% 30.35 in 10.0 mi Calm Calm - N/A   Clear
7:53 AM 30.9 °F - 27.0 °F 85% 30.37 in 10.0 mi Calm Calm - N/A   Mostly Cloudy
8:53 AM 36.0 °F - 28.9 °F 76% 30.36 in 10.0 mi Calm Calm - N/A   Mostly Cloudy
9:53 AM 41.0 °F - 30.0 °F 65% 30.35 in 10.0 mi Calm Calm - N/A   Scattered Clouds
10:53 AM 45.0 °F - 30.0 °F 56% 30.35 in 10.0 mi Calm Calm - N/A   Overcast
11:53 AM 48.9 °F - 30.0 °F 48% 30.31 in 10.0 mi West 3.5 mph - N/A   Mostly Cloudy
12:53 PM 53.1 °F - 28.9 °F 40% 30.26 in 10.0 mi Variable 5.8 mph - N/A   Mostly Cloudy
1:53 PM 53.1 °F - 28.0 °F 38% 30.25 in 10.0 mi SSE 4.6 mph - N/A   Overcast
2:53 PM 53.1 °F - 28.9 °F 40% 30.23 in 9.0 mi Calm Calm - N/A   Overcast
3:53 PM 51.1 °F - 28.9 °F 43% 30.24 in 10.0 mi Calm Calm - N/A   Overcast
4:53 PM 50.0 °F - 30.0 °F 46% 30.26 in 10.0 mi SE 18.4 mph 25.3 mph N/A   Overcast
5:53 PM 48.9 °F - 28.0 °F 44% 30.26 in 10.0 mi SE 11.5 mph - N/A   Overcast
6:53 PM 48.0 °F - 30.0 °F 50% 30.27 in 10.0 mi SE 5.8 mph - N/A   Overcast
7:53 PM 48.0 °F - 30.0 °F 50% 30.26 in 10.0 mi SE 12.7 mph 23.0 mph N/A   Overcast
8:53 PM 46.0 °F - 32.0 °F 58% 30.26 in 10.0 mi North - - N/A   Overcast
9:53 PM 44.1 °F 40.1 °F 34.0 °F 68% 30.25 in 10.0 mi East 6.9 mph - N/A   Overcast
10:00 PM 44.1 °F 42.5 °F 34.0 °F 68% 30.32 in 10.0 mi NE 3.5 mph - N/A   Overcast
10:28 PM 44.1 °F 40.1 °F 34.0 °F 68% 30.31 in 10.0 mi NE 6.9 mph - N/A   Overcast
10:53 PM 45.0 °F - 33.1 °F 63% 30.23 in 10.0 mi Calm Calm - N/A   Overcast
11:53 PM 45.0 °F 42.6 °F 32.0 °F 60% 30.20 in 10.0 mi ESE 4.6 mph - N/A   Overcast